Weather History for Schaffen, Belgium

Change the Weather History Date:

Monday, November 19, 2012

  Actual Average Record
Temperature  
Mean Temperature 41 °F -  
Max Temperature 50 °F 45 °F 53 °F (2011)
Min Temperature 32 °F 38 °F 32 °F (1998)
Degree Days  
Heating Degree Days 24    
Moisture  
Dew Point 43 °F    
Average Humidity 95    
Maximum Humidity 100    
Minimum Humidity 87    
Precipitation  
Precipitation 0.00 in - - ()
Sea Level Pressure  
Sea Level Pressure 29.99 in    
Wind  
Wind Speed 3 mph ()    
Max Wind Speed 6 mph    
Max Gust Speed -    
Visibility 1.8 miles    
Events Fog    
Averages and records for this station are not official NWS values.
T = Trace of Precipitation, MM = Missing Value Source: Averaged Metar Reports

Daily Weather History Graph

Daily Weather History Graph

Search for Another Location

Airport:

Trip Planner

Search our weather history database for the weather conditions in past years. The results will help you decide how hot, cold, wet, or windy it might be!

Date:

Astronomy

Nov. 19, 2012 Rise Set
Actual Time 8:03 AM CET 4:46 PM CET
Civil Twilight 7:26 AM CET 5:23 PM CET
Nautical Twilight 6:45 AM CET 6:04 PM CET
Astronomical Twilight 6:06 AM CET 6:43 PM CET
Moon 12:43 PM CET (11/19) 11:12 PM CET (11/19)
Length of Visible Light 9h 57m
Length of Day
8h 43m
Waxing Crescent, 38% of the Moon is Illuminated
Nov 19
Waxing Crescent
Nov 20
First Quarter
Nov 28
Full
Dec 6
Last Quarter
Dec 13
New

Hourly Weather History & Observations

Time (CET) Temp. Windchill Dew Point Humidity Pressure Visibility Wind Dir Wind Speed Gust Speed Precip Events Conditions
12:25 AM 33.8 °F - 33.8 °F 100% 30.04 in 0.1 mi Variable 1.2 mph - N/A Fog Fog
1:25 AM 33.8 °F - 33.8 °F 100% 30.04 in 0.0 mi Variable 1.2 mph - N/A Fog Fog
3:25 AM 33.8 °F - 33.8 °F 100% 30.04 in 0.1 mi Variable 1.2 mph - N/A Fog Fog
4:00 AM 34 °F - 33 °F 97% 30.04 in 0 mi Calm Calm - - Fog Fog
4:25 AM 33.8 °F - 33.8 °F 100% 30.01 in 0.1 mi Calm Calm - N/A Fog Fog
5:25 AM 35.6 °F - 35.6 °F 100% 30.01 in 0.1 mi Variable 2.3 mph - N/A Fog Fog
5:58 AM 37.4 °F 34.9 °F 37.4 °F 100% 30.01 in 0.1 mi Variable 3.5 mph - N/A Fog Fog
6:25 AM 37.4 °F - 37.4 °F 100% 30.01 in 0.1 mi Variable 2.3 mph - N/A Fog Fog
7:00 AM 38 °F - 38 °F 99% 30.02 in 0 mi 2.2 mph - - Fog Partial Fog
7:25 AM 39.2 °F 37.0 °F 37.4 °F 93% 30.01 in 0.1 mi Variable 3.5 mph - N/A Fog Fog
8:25 AM 37.4 °F - 37.4 °F 100% 30.01 in 0.1 mi Variable 2.3 mph - N/A Fog Fog
9:25 AM 39.2 °F - 39.2 °F 100% 30.01 in 0.1 mi Variable 2.3 mph - N/A Fog Fog
10:00 AM 39 °F - 39 °F 100% 30.02 in 0 mi 2.2 mph - - Fog Partial Fog
10:25 AM 41.0 °F 38.0 °F 41.0 °F 100% 29.98 in 0.1 mi ESE 4.6 mph - N/A Fog Fog
10:52 AM 41.0 °F 39.0 °F 41.0 °F 100% 30.01 in 0.6 mi Variable 3.5 mph - N/A Fog Fog
11:25 AM 42.8 °F - 42.8 °F 100% 29.98 in 0.9 mi Variable 2.3 mph - N/A   Mostly Cloudy
12:25 PM 44.6 °F - 42.8 °F 93% 29.98 in 1.6 mi Variable 2.3 mph - N/A   Mostly Cloudy
12:47 PM 46.4 °F 45.2 °F 44.6 °F 93% 29.98 in 2.2 mi Variable 3.5 mph - N/A   Mostly Cloudy
1:00 PM 47 °F - 45 °F 88% 29.98 in 2 mi 4.5 mph - -   Mist
1:17 PM 46.4 °F 43.5 °F 44.6 °F 93% 29.98 in - SSE 5.8 mph - N/A   Scattered Clouds
1:25 PM 46.4 °F 43.5 °F 44.6 °F 93% 29.98 in - SSE 5.8 mph - N/A   Scattered Clouds
2:25 PM 48.2 °F - 46.4 °F 93% 29.98 in - Variable 3.5 mph - N/A   Mostly Cloudy
2:49 PM 50.0 °F - 46.4 °F 87% 29.95 in 4.3 mi Variable 2.3 mph - N/A   Overcast
3:25 PM 50.0 °F - 48.2 °F 94% 29.95 in 4.3 mi Variable 3.5 mph - N/A   Mostly Cloudy
4:00 PM 50 °F - 48 °F 89% 29.98 in 5 mi 2.2 mph - -   Mostly Cloudy
4:25 PM 50.0 °F - 46.4 °F 87% 29.95 in 5.0 mi South 5.8 mph - N/A   Mostly Cloudy
4:38 PM 50.0 °F - 46.4 °F 87% 29.95 in 5.6 mi South 4.6 mph - N/A   Partly Cloudy
4:50 PM 50.0 °F - 46.4 °F 87% 29.98 in 4.3 mi Variable 3.5 mph - N/A   Partly Cloudy
5:25 PM 50.0 °F - 46.4 °F 87% 29.98 in 5.6 mi Variable 3.5 mph - N/A   Mostly Cloudy
6:02 PM 48.2 °F - 46.4 °F 93% 29.98 in - SE 4.6 mph - N/A   Overcast
6:25 PM 48.2 °F - 46.4 °F 93% 29.98 in - Variable 3.5 mph - N/A   Mostly Cloudy
6:52 PM 48.2 °F - 46.4 °F 93% 29.98 in 3.1 mi SSE 4.6 mph - N/A   Overcast
7:00 PM 49 °F - 47 °F 91% 29.99 in 3 mi 4.5 mph - -   Mist
7:25 PM 48.2 °F - 46.4 °F 93% 29.98 in 3.1 mi South 4.6 mph - N/A   Overcast
7:43 PM 48.2 °F - 48.2 °F 100% 29.98 in - South 4.6 mph - N/A   Overcast
8:03 PM 48.2 °F - 46.4 °F 93% 29.98 in - SSE 4.6 mph - N/A   Mostly Cloudy
8:25 PM 46.4 °F 44.3 °F 46.4 °F 100% 29.98 in - SSE 4.6 mph - N/A   Partly Cloudy
8:57 PM 46.4 °F 44.3 °F 46.4 °F 100% 29.98 in - SSE 4.6 mph - N/A   Mostly Cloudy
9:05 PM 46.4 °F 44.3 °F 44.6 °F 93% 29.98 in - SSE 4.6 mph - N/A   Mostly Cloudy
9:25 PM 46.4 °F 43.5 °F 44.6 °F 93% 30.01 in - South 5.8 mph - N/A   Mostly Cloudy
9:28 PM 46.4 °F 43.5 °F 44.6 °F 93% 29.98 in - South 5.8 mph - N/A   Mostly Cloudy
9:40 PM 46.4 °F 43.5 °F 44.6 °F 93% 30.01 in - SSE 5.8 mph - N/A   Partly Cloudy
9:50 PM 46.4 °F - 44.6 °F 93% 30.01 in - Variable 2.3 mph - N/A   Partly Cloudy
10:00 PM 46 °F - 45 °F 94% 30.01 in 2 mi 2.2 mph - -   Mist
10:10 PM 46.4 °F - 44.6 °F 93% 30.01 in - Variable 2.3 mph - N/A   Mostly Cloudy
10:25 PM 46.4 °F - 44.6 °F 93% 30.01 in 1.6 mi Variable 2.3 mph - N/A   Overcast
11:25 PM 44.6 °F 41.4 °F 44.6 °F 100% 30.01 in 1.7 mi South 5.8 mph - N/A   Overcast